Wind_Speed
73 67 67 67 61 59 59 50 47 36 36 37 32 32 38 44 48 32 43 40 36 33 29 25 22 19 26 29 27 26 25 26 27 28 27 25 22 21 18 16 16 16 14 12
70 70 62 62 61 59 57 53 44 38 43 42 35 38 38 38 29 23 41 44 35 32 26 31 25 20 18 27 28 29 27 27 28 27 26 24 24 20 19 18 16 16 15 15
71 69 62 59 67 61 57 54 46 42 47 42 37 38 36 36 28 18 24 32 33 27 25 29 23 19 13 23 28 30 31 31 27 26 26 27 25 22 19 17 15 13 13 15
59 63 59 61 63 61 59 56 50 46 50 40 39 39 41 32 23 21 21 22 25 26 24 22 21 20 18 19 22 30 33 30 29 28 28 29 25 21 20 17 14 13 12 15
55 64 56 60 60 59 59 54 53 49 50 45 41 39 45 36 28 23 25 28 27 29 30 30 27 23 22 24 23 22 32 30 27 26 28 27 23 22 22 20 19 16 16 16
58 69 57 59 61 54 57 52 53 52 48 48 47 46 49 45 34 33 32 33 28 25 23 23 28 29 27 27 21 19 20 28 28 30 31 28 26 25 25 25 24 23 20 16
60 69 59 60 57 57 54 58 55 53 51 52 48 47 46 48 42 41 39 32 25 25 28 26 26 27 30 26 21 17 23 29 33 34 34 32 33 30 29 29 28 26 23 20
60 70 56 57 56 56 61 60 58 57 55 58 54 49 46 42 42 42 41 34 28 25 27 30 29 30 26 25 28 27 26 31 31 34 35 33 34 35 32 32 31 31 29 28
60 60 58 63 57 55 61 62 57 57 60 62 61 55 49 44 39 41 38 33 29 27 26 29 32 32 34 30 30 33 35 34 30 32 36 38 36 35 38 39 35 34 34 33
63 68 47 64 65 50 60 62 60 57 63 66 63 61 55 52 44 43 40 37 33 29 27 28 28 32 34 36 37 39 41 43 43 43 44 45 45 45 45 44 44 47 41 43
57 60 67 48 64 56 56 59 60 60 62 68 68 61 58 57 51 44 43 41 37 35 33 33 31 31 30 30 34 39 42 46 46 45 45 47 49 52 53 51 48 46 45 48
58 57 57 68 54 63 54 64 66 67 66 70 71 68 63 60 54 52 50 46 46 44 44 43 41 38 32 31 30 29 32 39 42 46 49 51 52 54 56 54 52 53 52 52
47 60 60 62 68 68 73 49 74 73 73 75 74 70 69 65 59 57 57 56 52 51 45 42 44 39 34 34 34 32 31 32 34 37 42 45 47 52 54 51 48 45 43 42
52 57 55 57 66 73 50 74 69 78 80 81 81 72 66 69 66 63 61 59 58 55 51 47 44 41 38 34 36 37 35 34 33 34 37 37 38 40 42 43 44 43 42 41
21 48 61 58 58 68 59 58 53 57 76 78 75 75 71 73 72 68 65 64 60 58 55 49 49 49 43 38 36 39 40 39 37 35 37 39 41 41 41 42 43 42 42 42
37 31 56 61 63 66 70 77 67 54 63 79 75 77 77 75 74 71 70 68 65 61 56 54 55 51 47 41 43 45 44 43 41 38 40 41 42 42 42 43 44 44 45 46
15 34 50 52 62 69 70 70 70 74 86 73 75 75 83 73 73 74 76 74 72 68 65 60 61 56 51 43 49 52 50 47 46 44 44 45 45 45 46 47 48 49 50 50
10 17 24 35 55 62 68 77 78 74 72 64 68 79 72 62 62 78 80 79 80 76 70 68 64 61 54 47 50 51 49 52 51 49 50 49 49 51 51 52 52 53 54 55
7 9 11 16 22 45 69 71 72 74 74 77 78 72 75 76 75 70 75 70 73 73 63 66 69 67 58 53 54 53 50 51 55 56 55 55 55 55 56 56 57 58 59 59
11 9 8 8 12 18 27 41 60 75 80 80 82 85 81 78 86 91 81 66 61 66 69 67 69 68 62 54 57 54 52 53 51 52 53 55 56 57 58 59 59 60 61 61
21 20 17 13 12 13 20 26 36 43 50 62 79 89 85 83 88 83 86 80 68 61 70 76 72 68 64 62 62 56 56 55 55 59 61 63 65 66 67 67 66 66 67 68
18 19 17 19 16 8 16 15 14 17 32 44 53 65 88 98 96 95 87 79 77 77 62 72 77 79 70 69 66 59 61 64 64 63 60 60 63 66 69 69 70 71 71 70
14 16 19 18 17 20 17 12 15 16 19 21 20 26 37 54 81 101 103 96 88 82 76 68 69 72 71 70 69 72 75 69 64 59 59 57 62 67 67 70 71 71 70 66
17 15 15 19 19 17 15 19 17 18 17 18 21 21 21 23 31 47 59 76 95 95 90 82 77 78 80 79 81 82 74 70 68 62 64 62 61 64 59 56 59 62 63 62
18 18 17 14 16 18 20 21 19 20 21 20 19 21 19 16 16 19 22 29 39 57 78 89 93 94 92 91 89 85 83 80 74 68 70 66 62 67 61 61 58 58 67 74
20 20 19 19 19 16 17 19 22 22 15 14 24 23 24 26 25 24 35 33 31 32 28 40 62 64 91 92 91 89 90 90 91 78 76 68 70 67 56 53 61 64 71 73
17 17 20 23 22 20 20 19 17 18 22 24 14 19 26 24 29 35 29 35 45 44 34 48 49 51 57 58 64 69 73 70 66 67 63 73 76 75 72 74 72 72 69 64
Wind_Direction
195 194 202 201 203 205 208 210 211 194 186 174 168 182 196 208 222 220 193 188 194 197 193 194 194 193 193 193 191 188 191 192 193 196 200 198 197 198 198 197 204 218 222 214
194 195 200 200 204 206 209 208 208 187 168 166 184 194 203 213 214 212 203 190 192 205 202 200 196 195 195 194 194 191 188 192 199 201 193 193 192 190 192 195 200 209 207 201
194 194 196 200 203 206 207 205 203 189 171 183 189 190 197 201 203 195 193 189 202 198 210 201 201 203 200 202 193 198 192 194 197 195 191 190 192 187 194 199 203 201 199 201
193 193 200 199 203 205 207 203 195 185 175 186 184 181 185 191 199 189 183 184 199 210 221 212 204 212 213 218 199 202 191 192 190 185 186 191 195 193 196 202 203 209 203 206
196 192 197 202 202 203 205 203 195 187 181 186 184 184 188 184 199 198 190 200 206 213 220 223 223 208 222 223 214 198 198 191 184 182 189 193 191 194 200 203 206 211 213 220
195 193 195 199 200 201 202 197 195 195 192 187 184 188 190 193 197 208 200 203 206 202 204 206 208 208 219 214 218 218 215 192 185 185 191 189 194 202 208 208 209 215 221 226
191 196 196 195 197 194 196 198 195 192 192 190 193 193 196 199 197 202 211 213 212 208 210 211 213 212 218 216 203 206 212 209 197 197 199 202 202 207 211 215 218 222 222 232
192 195 194 196 196 191 194 194 195 193 189 191 196 199 203 204 208 211 217 218 214 214 213 214 219 228 234 229 209 217 225 218 218 209 205 221 216 205 218 220 223 225 231 236
195 193 202 198 195 191 199 199 197 192 191 194 197 202 206 208 215 220 224 231 230 219 214 208 209 219 228 227 215 208 211 218 221 232 218 214 219 236 236 216 231 233 235 237
198 199 197 198 195 196 198 200 199 195 194 197 199 203 207 210 212 218 225 231 235 231 228 221 216 210 213 212 210 206 211 216 221 225 224 222 224 227 235 236 236 237 233 240
197 200 206 205 202 202 210 203 202 203 199 202 200 203 206 210 207 212 221 229 230 234 237 233 234 229 220 214 213 216 218 220 222 223 225 227 230 233 235 234 234 240 239 241
198 206 207 213 212 204 212 221 206 208 209 207 207 205 208 211 211 208 219 224 225 229 234 235 233 234 231 228 225 224 224 224 225 228 231 232 233 234 240 242 242 243 245 249
180 200 207 213 215 209 215 217 206 208 206 209 210 209 211 214 214 212 212 221 222 224 227 230 231 230 230 234 234 235 233 233 232 230 232 237 242 245 246 249 251 252 253 254
203 206 216 219 220 221 227 229 208 204 205 207 211 210 212 215 218 218 218 221 220 227 230 226 226 224 222 230 235 233 234 237 236 240 244 246 246 246 248 253 257 258 259 259
225 209 212 218 224 229 226 229 227 211 212 213 213 211 210 215 218 222 226 225 228 230 230 228 220 220 227 239 243 240 241 241 242 242 244 247 247 248 249 250 253 255 257 259
238 235 214 221 227 232 235 233 239 226 210 213 216 219 213 215 220 223 227 229 231 231 229 225 222 226 237 244 256 253 247 245 244 248 249 249 249 250 252 253 255 257 258 260
210 228 235 230 231 231 236 239 239 242 237 241 219 231 231 224 222 226 227 229 233 235 236 230 232 235 239 252 255 255 252 251 249 248 251 254 255 254 255 256 256 257 258 260
290 274 271 257 242 238 237 238 241 243 239 240 240 229 225 228 232 229 231 236 235 236 239 242 242 242 241 246 246 249 251 252 252 250 251 252 254 257 259 258 258 260 261 262
275 263 257 238 230 235 235 238 243 244 245 243 241 231 236 239 241 233 238 237 239 239 235 238 243 245 247 244 248 247 248 253 253 253 254 255 255 256 258 260 263 264 265 266
303 296 293 266 228 216 226 239 244 244 244 246 246 245 240 246 234 235 231 231 235 240 241 244 245 245 247 246 245 250 248 248 250 253 254 257 258 259 260 261 263 265 266 267
302 308 303 307 321 259 232 236 241 243 251 253 251 246 250 249 249 251 249 239 237 238 242 243 247 246 246 247 251 243 236 241 250 257 258 260 261 262 263 263 264 264 265 267
298 302 309 308 297 293 229 222 249 248 242 245 250 250 247 245 246 250 249 248 253 248 249 249 246 245 244 248 247 244 249 258 267 267 261 260 261 260 259 260 260 262 264 267
304 297 299 300 305 305 295 256 245 244 250 267 266 256 252 249 248 248 247 246 246 245 248 244 247 248 247 246 242 248 259 264 263 264 265 263 258 258 259 257 257 260 263 265
307 309 295 297 301 297 282 275 282 282 271 235 257 252 257 254 253 250 254 254 250 243 240 242 243 243 245 247 248 254 260 262 261 264 265 266 269 267 262 256 258 257 258 263
288 290 294 293 281 291 294 278 266 256 260 266 274 277 273 253 258 248 254 228 243 243 246 244 242 246 249 250 254 258 261 262 262 263 258 257 266 243 237 236 244 260 268 269
282 277 279 282 285 282 276 280 288 277 250 244 235 246 252 240 237 231 214 228 225 234 228 238 243 238 244 247 251 254 255 261 264 261 251 243 239 249 256 260 262 264 268 274
299 289 280 277 272 273 275 274 271 272 283 280 254 221 228 230 231 231 226 216 216 228 221 213 202 225 234 238 245 250 252 253 249 250 248 243 244 252 262 266 271 276 272 267
Height
5667 5679 5693 5709 5720 5727 5732 5746 5753 5772 5777 5785 5795 5801 5806 5810 5812 5819 5826 5832 5840 5849 5854 5858 5861 5864 5868 5873 5877 5882 5888 5892 5898 5902 5905 5909 5913 5916 5919 5921 5922 5923 5925 5926
5665 5680 5691 5704 5713 5720 5729 5740 5750 5765 5775 5783 5787 5793 5799 5804 5812 5815 5820 5827 5835 5844 5850 5854 5858 5861 5865 5869 5875 5880 5884 5889 5894 5898 5902 5907 5910 5914 5917 5918 5920 5922 5923 5924
5661 5673 5685 5696 5700 5711 5723 5733 5745 5758 5771 5774 5781 5788 5795 5800 5807 5811 5816 5822 5831 5838 5845 5851 5855 5859 5863 5868 5870 5877 5880 5884 5890 5895 5899 5904 5907 5911 5914 5916 5918 5919 5921 5922
5652 5668 5676 5684 5693 5706 5714 5726 5738 5750 5760 5768 5777 5784 5791 5796 5802 5807 5812 5820 5827 5835 5841 5846 5851 5855 5861 5864 5868 5873 5876 5881 5886 5891 5896 5900 5904 5908 5911 5914 5916 5917 5919 5920
5646 5660 5670 5678 5688 5699 5710 5722 5734 5744 5753 5760 5770 5778 5784 5789 5797 5802 5809 5817 5825 5832 5837 5842 5847 5852 5857 5862 5866 5870 5874 5879 5884 5889 5893 5897 5902 5905 5907 5910 5913 5915 5916 5917
5642 5653 5662 5672 5684 5696 5707 5718 5727 5739 5748 5757 5764 5769 5776 5782 5791 5800 5807 5813 5819 5825 5832 5837 5842 5848 5853 5859 5864 5868 5873 5877 5881 5885 5889 5894 5897 5900 5902 5905 5908 5910 5912 5914
5637 5648 5660 5669 5681 5690 5704 5714 5721 5731 5741 5752 5759 5765 5770 5776 5783 5793 5801 5808 5814 5820 5825 5831 5837 5843 5848 5853 5860 5865 5868 5871 5876 5879 5884 5888 5890 5894 5898 5900 5902 5905 5907 5909
5634 5647 5659 5668 5679 5689 5697 5705 5714 5724 5733 5744 5752 5759 5765 5772 5777 5785 5794 5801 5807 5813 5819 5825 5832 5838 5843 5848 5855 5860 5862 5866 5871 5876 5879 5882 5882 5887 5892 5895 5898 5900 5902 5904
5633 5646 5657 5666 5676 5685 5691 5702 5710 5719 5728 5736 5743 5752 5760 5767 5774 5779 5786 5793 5800 5806 5812 5818 5824 5830 5835 5841 5847 5851 5856 5861 5866 5869 5873 5877 5880 5882 5883 5885 5889 5892 5894 5896
5632 5645 5651 5661 5672 5680 5687 5696 5706 5715 5722 5728 5737 5745 5753 5761 5769 5776 5781 5787 5793 5798 5803 5810 5816 5822 5828 5833 5839 5843 5848 5852 5856 5860 5864 5867 5870 5872 5874 5877 5879 5881 5884 5887
5630 5642 5651 5657 5668 5677 5684 5694 5705 5712 5717 5722 5728 5738 5747 5754 5762 5770 5777 5782 5788 5793 5798 5803 5808 5813 5819 5825 5831 5836 5840 5844 5847 5851 5855 5858 5860 5863 5865 5867 5869 5871 5874 5875
5630 5639 5647 5656 5664 5673 5680 5683 5695 5703 5711 5716 5720 5727 5736 5746 5754 5760 5769 5775 5782 5787 5792 5796 5801 5806 5812 5817 5821 5826 5830 5834 5839 5843 5845 5847 5850 5852 5854 5858 5860 5862 5864 5865
5626 5635 5644 5650 5660 5666 5669 5665 5681 5694 5700 5703 5711 5718 5725 5733 5742 5751 5758 5765 5772 5777 5783 5788 5792 5798 5804 5809 5814 5818 5822 5826 5829 5831 5834 5837 5840 5843 5845 5848 5850 5851 5853 5854
5633 5637 5644 5649 5654 5660 5662 5668 5669 5676 5685 5692 5695 5704 5714 5721 5729 5737 5745 5754 5761 5768 5774 5780 5785 5790 5795 5801 5805 5810 5814 5817 5821 5823 5825 5827 5829 5831 5833 5835 5837 5839 5841 5843
5629 5634 5639 5645 5650 5654 5658 5662 5665 5672 5681 5687 5690 5695 5702 5710 5717 5725 5732 5740 5748 5757 5764 5770 5776 5781 5786 5791 5795 5800 5804 5807 5810 5814 5815 5818 5819 5822 5823 5826 5828 5829 5831 5832
5625 5628 5634 5639 5643 5644 5649 5657 5662 5665 5665 5677 5682 5689 5693 5698 5707 5715 5722 5728 5735 5743 5752 5760 5766 5771 5777 5781 5784 5788 5793 5797 5799 5802 5804 5807 5809 5811 5813 5814 5816 5817 5818 5820
5618 5621 5626 5629 5632 5637 5637 5642 5652 5656 5662 5667 5676 5680 5686 5690 5697 5705 5710 5715 5722 5729 5736 5747 5753 5759 5764 5768 5771 5775 5780 5785 5788 5791 5794 5796 5797 5799 5801 5803 5804 5805 5806 5807
5610 5609 5609 5611 5615 5620 5624 5628 5633 5640 5649 5657 5659 5663 5670 5679 5685 5695 5700 5704 5709 5715 5722 5728 5737 5745 5753 5757 5761 5765 5767 5771 5775 5778 5781 5784 5785 5787 5788 5789 5791 5792 5793 5794
5611 5610 5608 5604 5602 5605 5611 5616 5618 5622 5626 5633 5640 5649 5657 5663 5670 5678 5684 5690 5697 5702 5709 5716 5722 5728 5737 5744 5748 5752 5755 5758 5761 5764 5767 5769 5771 5773 5774 5775 5776 5777 5777 5778
5606 5604 5601 5598 5596 5596 5599 5603 5604 5607 5613 5617 5623 5630 5639 5644 5652 5659 5667 5674 5681 5688 5695 5703 5709 5715 5721 5728 5734 5739 5742 5747 5750 5752 5753 5754 5756 5757 5758 5759 5760 5761 5761 5761
5602 5599 5595 5592 5590 5589 5592 5595 5595 5595 5594 5596 5603 5610 5617 5624 5632 5641 5648 5656 5664 5672 5680 5686 5694 5700 5705 5712 5718 5724 5729 5733 5735 5737 5739 5740 5740 5739 5740 5742 5743 5743 5743 5744
5600 5597 5594 5590 5589 5588 5588 5588 5589 5588 5588 5588 5587 5586 5593 5602 5609 5616 5627 5636 5646 5655 5665 5671 5677 5683 5690 5696 5701 5707 5712 5715 5719 5722 5723 5722 5722 5721 5721 5722 5723 5724 5725 5726
5596 5593 5591 5588 5586 5583 5582 5582 5581 5582 5582 5580 5579 5578 5578 5579 5585 5593 5602 5617 5629 5641 5648 5657 5660 5668 5673 5678 5685 5689 5693 5698 5701 5702 5702 5703 5701 5701 5702 5702 5703 5706 5707 5707
5590 5588 5586 5583 5582 5581 5579 5577 5575 5574 5574 5575 5575 5574 5572 5572 5574 5576 5581 5590 5602 5617 5628 5636 5642 5648 5653 5660 5667 5672 5675 5680 5683 5684 5683 5684 5684 5680 5681 5682 5684 5687 5689 5691
5584 5583 5581 5580 5578 5576 5574 5573 5572 5572 5571 5570 5570 5569 5568 5568 5570 5572 5574 5579 5584 5593 5602 5613 5622 5625 5632 5640 5644 5648 5654 5659 5663 5665 5666 5668 5668 5667 5662 5662 5664 5670 5674 5674
5576 5576 5575 5574 5572 5571 5570 5568 5566 5565 5566 5566 5565 5566 5565 5566 5567 5570 5573 5576 5580 5583 5586 5589 5596 5603 5609 5618 5625 5628 5632 5637 5642 5646 5650 5652 5651 5650 5646 5645 5649 5652 5655 5655
5570 5568 5566 5564 5565 5565 5563 5563 5561 5560 5558 5557 5559 5559 5561 5562 5563 5565 5568 5571 5574 5576 5581 5584 5579 5582 5589 5595 5602 5608 5613 5617 5620 5625 5627 5631 5632 5632 5632 5631 5632 5633 5633 5633